Probability
0 0 0 0 0 0 0 0 0 0 0 0 0 0 0 0 0 0 0 0 0 0 0 0 0 0 0 0 0 0 0 3 3 3 3 0 0 0 0 0 0 0 0 0
0 0 0 0 0 0 0 0 0 0 0 0 0 0 0 0 0 0 0 0 0 0 0 0 0 0 0 0 0 0 0 0 3 3 3 3 0 0 0 0 0 0 0 0
0 0 0 0 0 0 0 0 0 0 0 0 0 0 0 0 0 0 0 0 0 0 0 0 0 0 0 0 0 0 0 0 3 3 3 0 0 0 0 0 0 0 0 0
0 0 0 0 0 0 0 0 0 0 0 0 0 0 0 0 0 0 0 0 0 0 0 0 0 0 0 0 0 0 0 0 0 0 3 0 0 0 0 0 0 0 0 0
0 0 0 0 0 0 0 0 0 0 0 0 0 0 0 0 0 0 0 0 0 0 0 0 0 0 0 0 0 0 0 0 0 0 0 0 0 0 0 0 0 0 0 0
0 0 0 0 0 0 0 0 0 0 0 0 0 0 0 0 0 0 0 0 0 0 0 0 0 0 0 0 0 0 0 0 0 0 0 0 0 0 0 0 0 0 0 0
0 0 0 0 0 0 0 0 0 0 0 0 0 0 0 0 0 0 0 0 0 0 0 0 0 0 0 0 0 0 0 0 0 0 0 0 0 0 0 0 0 0 0 0
0 0 0 0 0 0 0 0 0 0 0 0 0 0 0 0 0 0 0 0 0 0 0 0 0 0 0 0 0 0 0 0 0 0 0 0 0 0 0 0 0 0 0 0
0 0 0 0 0 0 0 0 0 0 0 0 0 0 0 0 0 0 0 0 0 0 0 0 0 0 0 0 0 0 0 0 0 0 0 0 0 0 0 0 0 0 0 0
0 0 0 0 0 0 0 0 0 0 0 0 0 0 0 0 0 0 0 0 0 0 0 0 0 0 0 0 0 0 0 0 0 0 0 0 0 0 0 0 0 0 0 0
0 0 0 0 0 0 0 0 0 0 0 0 0 0 0 0 0 0 0 0 0 0 0 0 0 0 0 0 0 0 0 0 0 0 0 0 0 0 0 0 0 0 0 0
0 0 0 0 0 0 0 0 0 0 0 0 0 0 0 0 0 0 0 0 0 0 0 0 0 0 0 0 0 0 0 0 0 0 0 0 0 0 0 0 0 0 0 0
0 0 0 0 0 0 0 0 0 0 0 0 0 0 0 0 0 0 0 0 0 0 0 0 0 0 0 0 0 0 0 0 0 0 0 0 0 0 0 0 0 0 0 0
0 0 0 0 0 0 0 0 0 0 0 0 0 0 0 0 0 0 0 0 0 0 0 0 0 0 0 0 0 0 0 0 0 0 0 0 0 0 0 0 0 0 0 0
0 0 0 0 0 0 0 0 0 0 0 0 0 0 0 0 0 0 0 0 0 0 0 0 0 0 0 0 0 0 0 0 0 0 0 0 0 0 0 0 0 0 0 0
0 0 0 0 0 0 0 0 0 0 0 0 0 0 0 0 0 0 0 0 0 0 0 0 0 0 0 0 0 0 0 0 0 0 0 0 0 0 0 0 0 0 0 0
0 0 0 0 0 0 0 0 0 0 0 0 0 0 0 0 0 0 0 0 0 0 0 0 0 0 0 0 0 0 0 0 0 0 0 0 0 0 0 0 0 0 0 0
0 0 0 0 0 0 0 0 0 0 0 0 0 0 0 0 0 0 0 0 0 0 0 0 0 0 0 0 0 0 0 0 0 0 0 0 0 0 0 0 0 0 0 0
0 0 0 0 0 0 0 0 0 0 0 0 0 0 0 0 0 0 0 0 0 0 0 0 0 0 0 0 0 0 0 0 0 0 0 0 0 0 0 0 0 0 0 0
0 0 0 0 0 0 0 0 0 0 0 0 0 0 0 0 0 0 0 0 0 0 0 0 0 0 0 0 0 0 0 0 0 0 0 0 0 0 0 0 0 0 0 0
0 0 0 0 0 0 0 0 0 0 0 0 0 0 0 0 0 0 0 0 0 0 0 0 0 0 0 0 0 0 0 0 0 0 0 0 0 0 0 0 0 0 0 0
0 0 0 0 0 0 0 0 0 0 0 0 0 0 0 0 0 0 0 0 0 0 0 0 0 0 0 0 0 0 0 0 0 0 0 0 0 0 0 0 0 0 0 0
0 0 0 0 0 0 0 0 0 0 0 0 0 0 0 0 0 0 0 0 0 0 0 0 0 0 0 0 0 0 0 0 0 0 0 0 0 0 0 0 0 0 0 0
0 0 0 0 0 0 0 0 0 0 0 0 0 0 0 0 0 0 0 0 0 0 0 0 0 0 0 0 0 0 0 0 0 0 0 0 0 0 0 0 0 0 0 0
0 0 0 0 0 0 0 0 0 0 0 0 0 0 0 0 0 0 0 0 0 0 0 0 0 0 0 0 0 0 0 0 0 0 0 0 0 0 0 0 0 0 0 0
0 0 0 0 0 0 0 0 0 0 0 0 0 0 0 0 0 0 0 0 0 0 0 0 0 0 0 0 0 0 0 0 0 0 0 0 0 0 0 0 0 0 0 0
Height
5710 5711 5711 5711 5711 5711 5710 5710 5711 5712 5711 5711 5712 5713 5714 5714 5715 5715 5716 5716 5717 5717 5718 5719 5720 5721 5722 5723 5724 5725 5727 5728 5730 5731 5733 5735 5737 5738 5739 5740 5740 5740 5741 5742
5702 5703 5704 5702 5702 5701 5701 5701 5702 5703 5702 5701 5703 5704 5705 5705 5705 5706 5706 5707 5707 5708 5709 5710 5711 5712 5713 5714 5715 5716 5717 5719 5720 5722 5724 5725 5727 5728 5730 5730 5731 5731 5732 5733
5694 5696 5694 5694 5693 5693 5693 5693 5693 5693 5693 5692 5693 5694 5696 5696 5696 5697 5697 5698 5698 5699 5700 5701 5701 5702 5703 5704 5705 5706 5708 5709 5710 5711 5713 5715 5716 5717 5719 5720 5721 5722 5722 5723
5685 5686 5685 5684 5684 5684 5685 5685 5684 5683 5682 5682 5683 5682 5687 5687 5687 5688 5689 5689 5689 5690 5690 5691 5692 5692 5693 5694 5695 5696 5697 5698 5699 5701 5702 5704 5705 5707 5708 5709 5710 5711 5712 5713
5677 5677 5676 5676 5677 5676 5676 5676 5675 5674 5673 5673 5673 5672 5677 5677 5678 5679 5680 5680 5680 5680 5680 5681 5682 5682 5683 5684 5685 5686 5686 5687 5688 5690 5691 5692 5694 5695 5697 5698 5699 5700 5701 5702
5669 5668 5668 5668 5668 5667 5667 5667 5665 5664 5663 5663 5665 5664 5666 5668 5669 5670 5670 5670 5670 5670 5670 5671 5671 5672 5673 5673 5674 5675 5675 5676 5677 5678 5679 5680 5682 5683 5684 5686 5688 5689 5689 5690
5660 5660 5659 5659 5658 5658 5657 5657 5656 5654 5653 5654 5656 5654 5657 5658 5659 5659 5660 5660 5660 5660 5660 5661 5661 5661 5662 5663 5663 5663 5664 5665 5666 5667 5668 5669 5670 5671 5672 5674 5675 5676 5677 5679
5651 5651 5651 5650 5649 5649 5648 5648 5648 5646 5645 5645 5645 5644 5648 5649 5648 5649 5649 5649 5650 5650 5650 5650 5651 5651 5651 5652 5652 5652 5653 5654 5655 5656 5656 5657 5657 5658 5659 5661 5662 5663 5665 5666
5642 5642 5642 5641 5640 5640 5639 5638 5639 5637 5635 5634 5635 5636 5638 5638 5638 5638 5639 5639 5640 5640 5640 5640 5640 5640 5640 5641 5641 5641 5642 5642 5643 5644 5645 5645 5645 5645 5646 5648 5649 5650 5651 5652
5633 5633 5633 5631 5630 5629 5630 5630 5629 5627 5625 5624 5625 5626 5628 5628 5628 5629 5629 5629 5629 5630 5630 5630 5630 5629 5629 5629 5630 5630 5630 5630 5631 5632 5632 5632 5633 5633 5633 5635 5636 5637 5638 5639
5624 5623 5623 5622 5621 5620 5621 5620 5619 5618 5616 5615 5614 5619 5619 5619 5619 5619 5619 5618 5619 5619 5619 5619 5619 5619 5618 5618 5618 5618 5618 5619 5619 5619 5619 5620 5619 5620 5620 5621 5622 5623 5625 5626
5614 5613 5612 5612 5612 5611 5610 5610 5610 5609 5608 5607 5605 5610 5609 5609 5609 5609 5609 5608 5608 5608 5608 5608 5608 5607 5607 5607 5606 5606 5606 5606 5606 5606 5606 5606 5606 5606 5607 5607 5608 5609 5611 5612
5604 5603 5602 5602 5604 5602 5601 5600 5600 5599 5598 5597 5596 5601 5600 5599 5598 5598 5598 5598 5597 5597 5597 5596 5596 5596 5595 5595 5594 5594 5593 5593 5593 5593 5593 5593 5593 5593 5593 5594 5594 5595 5596 5597
5594 5593 5593 5593 5592 5591 5591 5591 5590 5589 5587 5587 5588 5590 5591 5589 5588 5588 5587 5586 5586 5586 5585 5585 5584 5584 5583 5582 5582 5581 5581 5580 5579 5579 5579 5579 5579 5579 5579 5580 5580 5580 5581 5582
5584 5583 5583 5582 5581 5581 5581 5581 5580 5579 5579 5578 5579 5579 5580 5579 5577 5576 5575 5575 5574 5574 5574 5573 5573 5572 5571 5570 5569 5568 5568 5567 5566 5565 5565 5565 5564 5565 5565 5565 5565 5565 5566 5567
5575 5574 5573 5573 5572 5570 5570 5571 5570 5569 5568 5568 5567 5568 5569 5567 5566 5565 5564 5563 5562 5562 5561 5561 5561 5560 5559 5558 5557 5555 5554 5553 5552 5552 5551 5551 5551 5550 5551 5551 5551 5550 5551 5552
5566 5565 5563 5562 5562 5560 5560 5562 5561 5559 5559 5557 5556 5558 5556 5555 5554 5553 5552 5552 5551 5550 5549 5549 5548 5547 5546 5545 5544 5542 5541 5540 5539 5538 5537 5537 5537 5536 5536 5536 5536 5536 5536 5537
5557 5555 5552 5551 5551 5549 5554 5552 5550 5548 5548 5547 5545 5545 5545 5544 5543 5542 5540 5539 5539 5538 5537 5537 5536 5535 5533 5532 5530 5529 5528 5526 5525 5524 5524 5523 5523 5522 5522 5521 5521 5521 5522 5523
5548 5546 5543 5541 5539 5539 5543 5542 5539 5537 5537 5537 5535 5534 5533 5532 5531 5531 5529 5528 5528 5527 5526 5525 5524 5522 5521 5519 5518 5516 5515 5513 5512 5511 5510 5509 5509 5508 5508 5507 5507 5507 5508 5508
5539 5537 5535 5532 5529 5529 5533 5531 5527 5526 5526 5526 5524 5523 5521 5520 5520 5521 5519 5517 5516 5515 5514 5513 5511 5510 5508 5506 5505 5504 5502 5500 5499 5498 5497 5496 5495 5494 5494 5494 5493 5493 5494 5494
5530 5527 5525 5523 5520 5520 5523 5520 5517 5517 5517 5515 5513 5511 5510 5509 5509 5508 5507 5505 5504 5503 5502 5501 5500 5498 5496 5494 5492 5491 5489 5488 5486 5485 5484 5482 5481 5481 5480 5479 5479 5479 5480 5480
5520 5518 5517 5514 5511 5514 5512 5509 5508 5506 5504 5503 5501 5500 5499 5498 5497 5496 5495 5494 5492 5491 5490 5489 5487 5486 5484 5482 5480 5478 5476 5475 5473 5472 5470 5469 5468 5467 5466 5466 5465 5465 5465 5466
5512 5511 5508 5506 5506 5504 5501 5499 5497 5495 5493 5492 5490 5489 5488 5487 5486 5485 5484 5482 5481 5480 5478 5477 5475 5473 5471 5469 5467 5465 5463 5461 5460 5458 5457 5456 5454 5453 5452 5452 5451 5451 5451 5451
5503 5501 5498 5496 5496 5494 5491 5488 5487 5485 5482 5481 5480 5478 5477 5476 5475 5474 5473 5471 5470 5468 5467 5465 5463 5461 5459 5457 5455 5452 5450 5448 5447 5445 5444 5442 5441 5440 5439 5438 5437 5437 5437 5437
5494 5491 5489 5487 5486 5483 5481 5479 5476 5474 5472 5470 5469 5468 5467 5465 5464 5463 5462 5460 5459 5457 5455 5453 5451 5449 5447 5445 5443 5440 5438 5436 5434 5432 5431 5429 5428 5427 5425 5425 5424 5423 5423 5422
5486 5483 5480 5478 5476 5473 5471 5469 5466 5464 5462 5460 5459 5457 5456 5455 5454 5452 5451 5449 5447 5445 5443 5441 5439 5437 5435 5433 5431 5428 5426 5423 5421 5419 5418 5416 5414 5413 5412 5411 5410 5409 5409 5408
Wind_Speed
29 29 29 28 29 30 30 31 32 31 32 33 34 33 33 33 33 34 34 34 34 34 35 35 35 36 36 36 36 35 36 36 37 37 37 37 37 37 37 38 39 38 39 39
29 29 28 28 29 29 30 31 32 33 34 35 35 34 33 33 33 34 34 34 34 35 35 35 35 36 36 37 36 37 37 37 38 39 39 38 38 39 39 39 40 40 39 39
29 29 28 29 29 30 30 31 31 33 34 35 36 36 34 34 34 34 34 34 34 35 35 36 36 37 37 37 37 38 38 38 39 40 40 40 41 41 41 40 40 40 41 41
29 29 29 29 30 31 31 31 32 33 34 35 36 37 34 34 35 34 34 35 35 35 36 37 37 38 38 38 39 39 39 40 41 41 42 43 43 44 43 43 43 42 41 42
29 29 29 30 30 31 32 32 33 34 35 36 35 37 35 35 34 34 35 35 35 36 37 38 39 39 40 40 40 40 40 41 43 43 43 43 43 44 44 43 43 43 43 43
29 30 30 30 30 31 31 32 34 34 35 36 35 37 37 35 34 33 34 34 35 36 37 37 38 39 40 40 40 41 41 42 42 43 44 44 44 45 45 45 44 44 44 44
29 29 30 31 31 31 31 32 33 34 35 36 35 37 37 35 34 34 34 34 35 35 36 37 38 38 38 39 39 40 41 42 42 43 44 45 46 46 46 46 46 46 45 44
30 30 30 31 32 31 31 31 32 34 35 37 36 37 36 34 34 34 34 34 35 35 36 37 37 38 38 38 39 40 41 41 42 43 44 45 46 48 48 48 47 47 47 46
31 31 31 32 32 33 32 32 32 34 35 35 36 37 36 34 34 34 34 34 35 35 35 36 36 37 38 38 39 39 41 42 43 44 45 45 46 47 48 49 49 49 48 48
32 33 32 32 33 33 33 33 32 33 35 36 36 35 35 34 34 34 34 34 35 35 36 36 36 37 37 38 38 39 40 42 43 44 44 45 45 46 47 49 49 49 49 49
32 33 33 33 33 33 33 33 33 34 35 37 37 34 33 33 33 33 34 35 35 36 36 36 36 37 38 39 40 41 42 43 44 45 46 46 46 46 47 48 49 49 50 50
32 34 33 33 33 32 33 33 33 35 36 36 38 37 34 33 33 32 33 34 35 36 37 37 38 38 39 40 40 42 43 44 45 46 46 47 47 48 47 47 48 49 50 50
32 33 34 33 33 33 33 33 34 35 37 37 37 36 34 34 33 33 34 35 36 36 37 38 38 40 40 41 42 42 43 44 46 46 47 48 47 48 49 49 49 50 51 51
32 33 33 33 33 34 33 33 34 35 37 38 37 35 34 34 35 36 36 37 37 37 37 38 39 40 40 41 41 42 43 44 45 46 46 47 47 48 49 49 50 51 51 52
32 34 34 33 34 35 35 35 35 37 38 39 37 37 35 35 35 36 37 38 39 38 38 39 39 40 41 41 42 42 44 45 46 46 47 48 48 48 49 49 50 51 52 53
30 32 33 34 33 34 35 35 36 36 37 38 38 37 35 36 37 37 38 39 40 40 39 39 40 40 41 41 42 42 43 45 45 46 46 47 48 48 49 48 49 50 51 52
30 30 32 33 32 34 35 32 34 35 35 37 38 36 36 36 36 37 38 38 39 40 39 39 39 40 41 41 42 42 43 44 45 46 46 47 47 48 49 49 49 49 50 51
31 30 32 32 33 35 32 32 33 34 35 35 36 35 35 36 36 36 37 37 38 38 38 38 38 39 40 41 41 42 42 43 44 45 46 46 47 47 48 49 49 49 49 50
31 31 32 33 34 35 32 31 33 34 34 33 35 35 35 36 36 36 37 37 37 37 38 38 38 39 39 40 41 41 41 42 42 43 44 45 46 46 47 47 48 48 48 48
30 31 32 33 34 34 32 31 32 34 34 33 33 34 35 35 36 35 36 37 37 37 37 38 38 39 39 40 41 41 41 41 41 42 43 44 45 46 47 47 48 48 47 47
30 31 32 33 34 34 32 32 32 33 33 33 33 34 35 35 35 35 36 36 37 37 38 38 39 40 40 41 41 41 41 42 42 42 43 43 44 45 45 46 46 47 47 46
29 30 30 31 33 32 32 32 33 33 33 34 34 34 35 35 35 35 35 36 37 37 38 38 39 39 40 41 42 41 41 42 42 42 43 43 43 44 45 45 45 46 46 46
29 29 30 32 32 31 31 32 32 33 33 34 35 35 35 35 35 35 35 36 36 37 37 37 38 38 39 40 41 41 41 42 42 42 43 43 43 44 44 45 45 46 46 47
30 30 31 31 30 30 30 31 32 33 34 34 34 34 34 35 35 35 36 36 36 36 36 37 37 38 39 39 39 40 40 40 41 41 42 42 43 43 44 44 44 45 46 46
31 31 31 31 30 30 31 31 32 34 34 34 34 34 33 34 34 34 35 35 36 36 36 37 38 38 38 38 38 39 40 40 41 41 41 42 43 43 43 44 44 45 45 46
30 31 32 31 31 31 31 32 33 34 34 33 33 33 34 34 35 35 35 35 36 37 37 38 38 38 38 38 38 39 39 40 40 41 42 42 42 42 43 44 44 45 45 46
Wind_Direction
270 269 269 269 268 267 266 265 263 262 261 261 259 259 258 259 259 259 260 260 259 259 258 258 257 257 257 257 257 256 256 257 256 254 254 255 255 257 259 260 260 260 260 260
270 269 270 269 268 267 266 266 265 263 262 262 260 259 258 259 259 259 260 260 258 257 257 258 258 258 258 257 256 256 256 257 257 255 254 255 255 256 258 260 260 260 260 260
271 271 270 269 267 267 266 267 267 266 264 263 262 259 257 258 258 259 260 260 259 257 257 256 257 258 257 256 256 256 256 257 257 256 256 256 256 256 257 259 260 259 259 260
270 270 269 268 267 267 266 267 268 268 267 265 263 262 257 258 259 259 260 261 260 259 258 257 258 259 258 257 256 257 257 257 257 257 257 257 256 256 256 258 257 258 258 259
271 271 270 269 269 268 267 268 269 268 268 266 264 264 260 260 261 261 261 261 260 259 259 259 259 259 259 258 257 258 258 258 258 258 258 257 257 257 257 258 258 258 258 258
272 271 271 270 270 269 268 268 268 268 268 267 266 266 264 264 264 265 264 263 262 260 259 259 259 259 259 258 257 258 258 258 258 258 258 258 258 259 258 258 258 258 258 258
272 270 269 269 269 268 267 268 270 269 267 268 269 268 268 267 267 266 266 265 264 262 260 259 259 260 259 259 258 258 258 258 257 257 258 258 258 258 258 259 259 259 258 258
275 273 271 270 269 268 267 268 270 271 271 270 269 270 271 269 267 267 266 265 264 262 261 261 261 262 261 260 260 260 259 258 258 258 259 259 259 259 258 258 259 259 258 259
277 275 273 272 270 267 265 267 269 270 272 272 271 271 270 270 268 267 266 265 264 262 261 262 264 263 263 262 262 262 261 259 259 259 260 260 260 260 259 258 259 260 259 260
279 277 274 273 271 267 266 266 267 268 270 273 274 273 272 271 270 269 268 266 265 263 263 264 266 265 264 264 264 263 262 260 260 260 261 262 261 261 259 258 259 260 260 260
278 277 275 272 270 267 265 265 265 266 269 272 274 273 273 273 273 271 269 268 266 266 266 266 267 267 266 265 265 265 263 262 262 262 262 262 262 261 261 261 261 261 260 260
278 278 275 272 270 267 266 267 266 267 269 271 273 273 273 273 272 271 268 268 268 268 268 267 267 267 267 266 266 266 265 264 263 263 262 262 262 262 262 261 261 262 261 260
278 277 276 272 269 267 267 267 267 268 268 270 272 273 273 274 272 270 269 268 269 269 269 268 268 268 268 267 267 266 266 265 264 264 263 262 262 262 262 262 261 261 261 261
276 274 274 273 271 268 268 268 268 267 268 270 271 272 272 273 272 271 270 270 269 269 270 270 269 268 269 269 268 267 267 267 267 266 264 263 262 262 262 263 263 261 261 261
276 274 273 273 271 269 268 268 268 268 269 271 272 272 271 272 271 271 270 268 268 269 269 270 270 269 270 270 270 269 268 268 268 267 265 264 264 263 263 264 264 262 261 260
280 277 275 272 271 271 269 268 269 270 270 271 272 271 271 271 271 271 271 270 269 270 270 269 269 270 271 271 270 270 270 269 268 267 266 265 265 265 264 264 264 264 262 260
282 281 279 275 272 271 271 271 270 270 272 272 272 272 271 269 270 272 272 272 271 271 271 271 272 272 273 273 272 271 271 270 269 268 267 266 266 265 265 265 265 265 263 261
281 281 281 280 276 273 275 274 274 274 274 274 273 271 270 271 272 272 272 273 273 273 273 273 273 273 273 273 272 271 271 271 270 269 268 268 267 266 266 266 265 265 264 262
282 282 282 281 280 279 277 277 276 275 276 275 274 272 272 273 273 273 273 274 274 274 273 272 273 274 274 274 273 272 272 272 271 271 270 269 268 267 267 267 265 264 264 264
284 283 283 283 282 282 283 279 277 276 276 276 275 274 273 273 273 273 273 274 274 273 274 273 273 274 275 275 274 274 274 273 272 272 271 270 269 269 268 267 265 264 264 264
284 284 284 284 283 282 284 282 280 279 279 277 276 276 275 274 275 275 274 274 274 275 274 274 275 275 276 275 275 275 275 274 273 272 272 271 271 270 269 268 266 265 265 265
286 286 285 285 284 286 285 283 281 281 280 279 277 277 276 275 276 275 276 276 276 275 275 275 276 277 277 276 276 276 276 274 273 273 272 272 272 271 269 268 267 266 265 265
285 286 285 286 287 287 284 282 280 280 280 280 278 277 276 276 276 276 276 277 277 276 275 276 276 276 277 277 277 278 277 276 274 273 273 273 273 271 269 268 267 266 266 266
284 285 286 286 287 285 283 281 280 280 280 280 279 279 278 277 277 277 278 277 278 278 277 277 277 277 278 278 279 279 279 278 276 274 274 273 273 271 270 269 268 267 266 267
286 286 287 287 286 284 283 283 281 281 281 282 281 280 279 278 278 278 278 278 278 279 279 279 279 279 279 280 279 279 279 279 277 275 274 274 273 271 270 269 268 267 267 268
287 287 286 287 287 287 285 284 283 283 283 282 281 281 281 279 278 278 279 280 280 280 279 280 280 280 280 280 281 281 281 280 279 277 275 274 273 271 271 270 269 268 268 268